CZ-3B DEB, 40169

Orbit data source: Space-Track

CZ-3B DEB, 40169 is space debris in HEO originally from a launch on Sat, 04 Sep 2010 UTC launched from the Xichang Space Center, China (XSC). Debris objects in space refer to the collection of defunct objects orbiting the Earth. Examples of debris include non-operational satellites, rocket bodies, and fragments generated from explosions, collisions, or faulty payload assembly.

Loading next visibility...
Identifier
40169, 2010-042W
Orbit
HEO
Country
Flag of CNCN / PRC
Related business
Manufacturer
CALT
Mission
Spacecraft
Bus & Motor
Unknown
Mass
Unknown
Launch date (UTC)
2010-09-04 (15 years ago)
Launch vehicle
Unknown
Launch site
Xichang Space Center, China (XSC)
Object type
Payload
Rocket body
Debris
Shape & HBR
Unknown shape, 0.2 m
Radar Cross Section
Medium (>0.1 m² and <1 m²)

Expand to show TLE details & history
Last TLE update: 9 hours ago

TLE from 9 hours ago
0 CZ-3B DEB
1 40169U 10042W   25311.10924241 -.00000210  00000-0  00000+0 0  9995
2 40169  26.9519 290.9862 7197286 306.3054 315.2241  1.93996267 93485
Epoch: 2025-11-07T02:37Z
TLE epoch observation values (Epoch: 2025-11-07T02:37:18.544Z)
Latitude
3.07168°
Longitude
18.94987°
Altitude
19,351.021 km
Speed
4.038 km/s
True Right ascension
06h 59m 20s
True Declination
3° 03' 60"
Sunlit
Object was in daylight at epoch
Visualization orbit readout
Latitude
Unknown
Longitude
Unknown
Altitude
Unknown
Speed
Unknown
Apparent Right ascension
Unknown
Apparent Declination
Unknown
Sunlit
N/A
Visualization observer readout
Local Sidereal Time
07:21:05
Azimuth
Unknown
Elevation
Unknown
Doppler factor
Unknown
Orbital elements
Apogee altitude
40,329.375 km
Perigee altitude
1,233.983 km
Semi-major axis
27,159.816 km
Eccentricity
0.71973
Inclination
26.9519°
RAAN
290.9862°
Arg. of periapsis
306.3054°
True anomaly
226.88425°
Mean anomaly
315.2241°
Eccentric anomaly
274.0918°
Mean motion
0.4849 °/min
Orbital period
742.42 mins
BSTAR
0
Loading maneuver chart data...
Computing Atmospheric mass density...
Loading historical data...
Loading historical data...
Loading historical data...
Loading historical data...
Loading historical data...
Loading historical data...
Loading historical data...

Documentation

Showing up to 5 results
|